Weather History for KTKV - October, 2013

Change the Weather History Date:

Saturday, October 5, 2013

  Actual Average (KRHI) Record (KRHI)
Temperature  
Mean Temperature 54 °F 48 °F  
Max Temperature 57 °F 58 °F 83 °F (1922)
Min Temperature 52 °F 37 °F 20 °F (2003)
Degree Days  
Heating Degree Days 10 18  
Month to date heating degree days 85  
Since 1 July heating degree days 517  
Cooling Degree Days 0 0  
Month to date cooling degree days 0  
Year to date cooling degree days 259  
Growing Degree Days 4 (Base 50)    
Moisture  
Dew Point 53 °F    
Average Humidity 95    
Maximum Humidity 97    
Minimum Humidity 94    
Precipitation  
Precipitation 2.15 in 0.12 in 1.54 in (1941)
Month to date precipitation 0.60  
Year to date precipitation 25.68  
Snow  
Snow 0.00 in - T in (2012)
Month to date snowfall  
Since 1 July snowfall  
Since 1 September snowfall  
Snow Depth -    
Sea Level Pressure  
Sea Level Pressure 29.88 in    
Wind  
Wind Speed 6 mph (East)    
Max Wind Speed 13 mph    
Max Gust Speed 18 mph    
Visibility 6 miles    
Events Rain    
T = Trace of Precipitation, MM = Missing Value Source: NWS Daily Summary

Daily Weather History Graph

Daily Weather History Graph

Search for Another Location

Airport or City:

Trip Planner

Search our weather history database for the weather conditions in past years. The results will help you decide how hot, cold, wet, or windy it might be!

Date:

Astronomy

Oct. 05, 2013 Rise Set
Actual Time 7:02 AM CDT 6:31 PM CDT
Civil Twilight 6:33 AM CDT 7:00 PM CDT
Nautical Twilight 5:58 AM CDT 7:35 PM CDT
Astronomical Twilight 5:24 AM CDT 8:09 PM CDT
Moon 7:45 AM CDT (10/5) 6:45 PM CDT (10/5)
Length of Visible Light 12h 27m
Length of Day
11h 28m
New Moon, 1% of the Moon is Illuminated
Oct 5
New Moon
Oct 11
First Quarter
Oct 18
Full
Oct 26
Last Quarter
Nov 3
New

Hourly Weather History & Observations

Time (CDT) Temp. Dew Point Humidity Pressure Visibility Wind Dir Wind Speed Gust Speed Precip Events Conditions
12:15 AM 52.5 °F 50.7 °F 94% 30.03 in 7.0 mi East 8.1 mph - N/A Rain Light Rain
12:35 AM 52.3 °F 50.5 °F 94% 30.02 in 7.0 mi East 8.1 mph - N/A Rain Light Rain
12:55 AM 52.3 °F 50.9 °F 95% 30.01 in 5.0 mi Calm Calm - 0.01 in Rain Light Rain
1:15 AM 52.3 °F 50.9 °F 95% 30.02 in 5.0 mi East 4.6 mph - 0.02 in Rain Light Rain
1:35 AM 52.7 °F 50.9 °F 94% 30.03 in 5.0 mi East 4.6 mph - 0.02 in Rain Light Rain
1:55 AM 52.5 °F 50.9 °F 94% 30.03 in 5.0 mi East 4.6 mph - 0.06 in Rain Rain
2:15 AM 52.3 °F 50.9 °F 95% 30.01 in 4.0 mi East 4.6 mph - 0.05 in Rain Rain
2:35 AM 52.3 °F 50.9 °F 95% 29.99 in 5.0 mi Calm Calm - 0.13 in Rain Rain
2:55 AM 52.2 °F 50.9 °F 95% 29.97 in 5.0 mi East 6.9 mph - 0.20 in Rain Rain
3:15 AM 52.3 °F 51.1 °F 95% 29.97 in 5.0 mi East 5.8 mph - 0.09 in Rain Heavy Rain
3:35 AM 52.3 °F 51.1 °F 95% 29.98 in 5.0 mi Calm Calm - 0.15 in Rain Rain
3:55 AM 52.7 °F 51.3 °F 95% 29.98 in 4.0 mi Calm Calm - 0.26 in Rain Heavy Rain
4:15 AM 52.7 °F 51.4 °F 95% 29.97 in 3.0 mi East 8.1 mph - 0.15 in Rain Heavy Rain
4:35 AM 52.7 °F 51.3 °F 95% 29.97 in 4.0 mi ESE 5.8 mph - 0.25 in Rain Rain
4:55 AM 52.7 °F 51.4 °F 95% 29.91 in 5.0 mi East 10.4 mph 18.4 mph 0.34 in Rain Rain
5:15 AM 52.9 °F 51.8 °F 96% 29.92 in 7.0 mi ESE 9.2 mph 16.1 mph 0.02 in   Overcast
5:35 AM 52.9 °F 51.8 °F 96% 29.92 in 10.0 mi East 8.1 mph - 0.02 in   Mostly Cloudy
5:55 AM 53.2 °F 51.8 °F 95% 29.92 in 10.0 mi East 4.6 mph - 0.02 in   Mostly Cloudy
6:15 AM 53.6 °F 51.8 °F 94% 29.94 in 10.0 mi Calm Calm - N/A   Overcast
6:35 AM 53.6 °F 52.0 °F 94% 29.93 in 10.0 mi East 4.6 mph - N/A   Overcast
6:55 AM 53.6 °F 52.0 °F 94% 29.92 in 10.0 mi East 8.1 mph - N/A   Overcast
7:15 AM 53.6 °F 52.0 °F 94% 29.92 in 10.0 mi East 5.8 mph - N/A   Overcast
7:35 AM 53.6 °F 52.2 °F 95% 29.93 in 10.0 mi East 5.8 mph - N/A   Overcast
7:55 AM 53.6 °F 52.0 °F 94% 29.92 in 10.0 mi ENE 6.9 mph - N/A   Overcast
8:15 AM 53.6 °F 52.2 °F 95% 29.91 in 10.0 mi East 6.9 mph - N/A   Overcast
8:35 AM 53.6 °F 52.2 °F 95% 29.92 in 10.0 mi East 4.6 mph - N/A   Overcast
8:55 AM 53.8 °F 52.3 °F 95% 29.93 in 10.0 mi East 5.8 mph - N/A   Overcast
9:15 AM 54.0 °F 52.7 °F 95% 29.95 in 10.0 mi Calm Calm - N/A   Overcast
9:35 AM 54.1 °F 52.7 °F 95% 29.95 in 10.0 mi ESE 3.5 mph - N/A   Overcast
9:55 AM 54.3 °F 52.9 °F 95% 29.91 in 4.0 mi East 12.7 mph 16.1 mph 0.01 in Rain Rain
10:15 AM 54.5 °F 53.1 °F 95% 29.94 in 4.0 mi NE 3.5 mph - 0.08 in Rain Light Rain
10:35 AM 54.5 °F 53.1 °F 95% 29.94 in 7.0 mi NNE 5.8 mph - 0.08 in   Overcast
10:55 AM 54.5 °F 53.1 °F 95% 29.93 in 7.0 mi NE 4.6 mph - 0.09 in   Overcast
11:15 AM 54.5 °F 52.9 °F 94% 29.92 in 10.0 mi ENE 8.1 mph - N/A   Overcast
11:35 AM 54.5 °F 53.1 °F 95% 29.94 in 5.0 mi East 8.1 mph - N/A Rain Rain
11:55 AM 54.7 °F 53.2 °F 95% 29.93 in 1.8 mi ENE 8.1 mph - 0.02 in   Heavy Drizzle
12:15 PM 55.0 °F 53.8 °F 96% 29.92 in 1.8 mi East 5.8 mph - N/A   Drizzle
12:35 PM 55.9 °F 54.7 °F 96% 29.91 in 1.5 mi East 4.6 mph - 0.02 in   Light Drizzle
12:55 PM 55.9 °F 54.7 °F 96% 29.90 in 2.0 mi East 4.6 mph - 0.02 in   Overcast
1:15 PM 56.5 °F 55.4 °F 96% 29.88 in 2.5 mi East 5.8 mph - N/A   Overcast
1:35 PM 57.2 °F 55.9 °F 96% 29.87 in 10.0 mi East 6.9 mph - N/A   Overcast
1:55 PM 57.6 °F 56.3 °F 96% 29.88 in 10.0 mi Calm Calm - N/A   Overcast
2:15 PM 57.7 °F 56.3 °F 95% 29.88 in 10.0 mi Calm Calm - N/A   Overcast
2:35 PM 57.6 °F 55.9 °F 94% 29.87 in 2.5 mi ESE 3.5 mph - N/A   Overcast
2:55 PM 57.6 °F 56.3 °F 96% 29.86 in 2.0 mi East 3.5 mph - N/A   Overcast
3:15 PM 57.6 °F 56.3 °F 96% 29.85 in 2.5 mi ENE 5.8 mph - N/A   Overcast
3:35 PM 57.2 °F 55.8 °F 95% 29.84 in 2.0 mi ENE 6.9 mph - N/A   Overcast
3:55 PM 56.8 °F 55.6 °F 96% 29.83 in 2.5 mi ENE 8.1 mph - N/A   Overcast
4:15 PM 56.8 °F 55.6 °F 96% 29.83 in 2.5 mi ENE 6.9 mph - N/A   Overcast
4:35 PM 56.8 °F 55.4 °F 95% 29.82 in 10.0 mi ENE 6.9 mph - N/A   Overcast
4:55 PM 56.8 °F 55.4 °F 95% 29.83 in 10.0 mi East 9.2 mph - N/A   Overcast
5:15 PM 56.7 °F 55.0 °F 94% 29.82 in 10.0 mi East 6.9 mph - N/A   Overcast
5:35 PM 56.5 °F 55.0 °F 95% 29.83 in 10.0 mi East 5.8 mph - N/A   Overcast
5:55 PM 56.3 °F 54.9 °F 95% 29.83 in 5.0 mi East 6.9 mph - N/A   Overcast
6:15 PM 56.3 °F 54.7 °F 94% 29.82 in 5.0 mi East 6.9 mph - N/A   Overcast
6:35 PM 55.9 °F 54.5 °F 95% 29.81 in 7.0 mi East 5.8 mph - N/A   Overcast
6:55 PM 55.6 °F 54.3 °F 96% 29.80 in 7.0 mi East 8.1 mph - N/A   Overcast
7:15 PM 55.4 °F 54.1 °F 96% 29.78 in 10.0 mi East 6.9 mph 16.1 mph N/A   Overcast
7:35 PM 54.9 °F 53.6 °F 96% 29.78 in 10.0 mi East 9.2 mph 17.3 mph N/A   Overcast
7:55 PM 54.9 °F 53.6 °F 96% 29.78 in 10.0 mi East 9.2 mph - N/A   Overcast
8:15 PM 54.7 °F 53.6 °F 96% 29.77 in 10.0 mi East 9.2 mph 17.3 mph N/A   Overcast
8:35 PM 54.7 °F 53.6 °F 96% 29.76 in 10.0 mi East 4.6 mph - N/A Rain Light Rain
8:55 PM 54.5 °F 53.2 °F 96% 29.76 in 10.0 mi East 6.9 mph - N/A   Overcast
9:15 PM 54.5 °F 53.2 °F 96% 29.74 in 3.0 mi East 8.1 mph - 0.12 in Rain Heavy Rain
9:35 PM 54.5 °F 53.6 °F 97% 29.74 in 2.5 mi East 6.9 mph - 0.31 in Rain Heavy Rain
9:55 PM 54.9 °F 53.8 °F 96% 29.73 in 4.0 mi East 11.5 mph - 0.46 in Rain Rain
10:15 PM 54.9 °F 53.8 °F 96% 29.74 in 7.0 mi East 3.5 mph - 0.12 in Rain Light Rain
10:35 PM 55.0 °F 54.0 °F 96% 29.73 in 7.0 mi East 3.5 mph - 0.14 in Rain Rain
10:55 PM 55.0 °F 54.0 °F 96% 29.72 in 2.5 mi Calm Calm - 0.31 in Rain Rain
11:15 PM 55.0 °F 54.0 °F 96% 29.73 in 7.0 mi West 3.5 mph - 0.11 in Rain Light Rain
11:35 PM 55.0 °F 54.0 °F 96% 29.72 in 4.0 mi West 4.6 mph - 0.23 in Rain Heavy Rain
11:55 PM 54.9 °F 53.8 °F 96% 29.72 in 5.0 mi Calm Calm - 0.35 in Rain Rain